Flag for Norway Weather past 2 weeks in Fagernes, Norway

Now
77 °F

Scattered clouds.


Feels Like: 78 °F
Forecast: 56 / 81 °F
Wind: 12 mph from South

Location: Fagernes Leirin

Current Time: Jul 25, 2014 at 3:53:14 PM

Latest Report: Jul 25, 2014 at 2:50 PM


Visibility: N/A

Pressure: 30.24 "Hg

Humidity: 42%

Dew point: 52 °F

Location of FagernesLocation

Historic Weather in Fagernes — Graph

°F

Fagernes temperature yesterday

Maximum temperature yesterday: 81 °F (at 2:20 PM)
Minimum temperature yesterday: 61 °F (at 7:20 AM)
Average temperature yesterday: 72 °F

Past Weeks' High & Low Weather Summary

 TemperatureHumidityPressure
High81 °F (Jul 23, 3:50 PM)100% (Jul 15, 8:20 AM)30.39 "Hg (Jul 15, 8:20 AM)
Low52 °F (Jul 16, 7:20 AM)26% (Jul 24, 12:50 PM)29.77 "Hg (Jul 14, 7:20 AM)
Average65 °F59%30.12 "Hg
* Reported Jul 10 2:20 PM — Jul 25 2:20 PM, Fagernes, Weather by CustomWeather, © 2014

Note: Actual official high and low records may vary slightly from our data, if they occured in-between our weather recording intervals... More about our weather records

Advertising

Fagernes weather history for previous 24 hours

 ConditionsComfort  
Time TempWeatherWind HumidityBarometerVisibility
2:20 PM
Jul 25
73 °FScattered showers. Scattered clouds.7 mph47%30.24 "HgN/A
1:50 PM75 °FScattered showers. Scattered clouds.5 mph41%30.27 "HgN/A
1:20 PM75 °FScattered showers. Scattered clouds.6 mph39%30.27 "HgN/A
12:50 PM75 °FPassing clouds.2 mph39%30.27 "HgN/A
12:20 PM73 °FPassing clouds.6 mph47%30.27 "HgN/A
11:50 AM72 °FPassing clouds.2 mph53%30.27 "HgN/A
11:20 AM72 °FPassing clouds.6 mph57%30.27 "HgN/A
10:50 AM70 °FPassing clouds.5 mph57%30.27 "HgN/A
10:20 AM70 °FSunny.3 mph57%30.27 "Hg10 mi
9:50 AM68 °FSunny.3 mph56%30.30 "Hg10 mi
9:20 AM66 °FSunny.3 mph68%30.27 "Hg10 mi
8:50 AM64 °FSunny.2 mph68%30.27 "Hg10 mi
8:20 AM63 °FPassing clouds.1 mph77%30.27 "HgN/A
7:50 AM61 °FPassing clouds.No wind83%30.27 "HgN/A
7:20 AM57 °FPassing clouds.No wind94%30.27 "HgN/A
4:50 PM
Jul 24
68 °FSprinkles. Partly sunny.6 mph60%30.30 "HgN/A
4:20 PM70 °FThunderstorms. Partly sunny.9 mph57%30.30 "HgN/A
3:50 PM70 °FScattered showers. Partly sunny.7 mph50%30.30 "HgN/A
3:20 PM77 °FThunderstorms. Partly sunny.6 mph34%30.30 "HgN/A
Weather by CustomWeather, © 2014

See weather overviewHow to use our weather pages